owner,sensor,date,latitude,longitude,air_temperature,qcFlag 
DISL,ioos:station:DISL:KATA:1,2013-12-01T00:00:00Z,30.2583,-88.2131,13.08,1111122 
DISL,ioos:station:DISL:KATA:1,2013-12-01T00:30:00Z,30.2583,-88.2131,13.28,1111122 
DISL,ioos:station:DISL:KATA:1,2013-12-01T01:00:00Z,30.2583,-88.2131,12.81,1111122 
DISL,ioos:station:DISL:KATA:1,2013-12-01T01:30:00Z,30.2583,-88.2131,12.23,1111122 
DISL,ioos:station:DISL:KATA:1,2013-12-01T02:00:00Z,30.2583,-88.2131,12.26,1111122 
DISL,ioos:station:DISL:KATA:1,2013-12-01T02:30:00Z,30.2583,-88.2131,12.95,1111122 
DISL,ioos:station:DISL:KATA:1,2013-12-01T03:00:00Z,30.2583,-88.2131,13.25,1111122 
DISL,ioos:station:DISL:KATA:1,2013-12-01T03:30:00Z,30.2583,-88.2131,12.94,1111122 
DISL,ioos:station:DISL:KATA:1,2013-12-01T04:00:00Z,30.2583,-88.2131,11.28,1111122 
DISL,ioos:station:DISL:KATA:1,2013-12-01T04:30:00Z,30.2583,-88.2131,10.9,1111122 
DISL,ioos:station:DISL:KATA:1,2013-12-01T05:00:00Z,30.2583,-88.2131,10.73,1111122 
DISL,ioos:station:DISL:KATA:1,2013-12-01T05:30:00Z,30.2583,-88.2131,10.57,1111122 
DISL,ioos:station:DISL:KATA:1,2013-12-01T06:00:00Z,30.2583,-88.2131,10.74,1111122 
DISL,ioos:station:DISL:KATA:1,2013-12-01T06:30:00Z,30.2583,-88.2131,10.64,1111122 
DISL,ioos:station:DISL:KATA:1,2013-12-01T07:00:00Z,30.2583,-88.2131,10.6,1111122 
DISL,ioos:station:DISL:KATA:1,2013-12-01T07:30:00Z,30.2583,-88.2131,10.03,1111122 
DISL,ioos:station:DISL:KATA:1,2013-12-01T08:00:00Z,30.2583,-88.2131,9.96,1111122 
DISL,ioos:station:DISL:KATA:1,2013-12-01T08:30:00Z,30.2583,-88.2131,9.83,1111122 
DISL,ioos:station:DISL:KATA:1,2013-12-01T09:00:00Z,30.2583,-88.2131,9.63,1111122 
DISL,ioos:station:DISL:KATA:1,2013-12-01T09:30:00Z,30.2583,-88.2131,9.83,1111122 
DISL,ioos:station:DISL:KATA:1,2013-12-01T10:00:00Z,30.2583,-88.2131,9.69,1111122 
DISL,ioos:station:DISL:KATA:1,2013-12-01T10:30:00Z,30.2583,-88.2131,9.76,1111122 
DISL,ioos:station:DISL:KATA:1,2013-12-01T11:00:00Z,30.2583,-88.2131,9.56,1111122 
DISL,ioos:station:DISL:KATA:1,2013-12-01T11:30:00Z,30.2583,-88.2131,9.59,1111122 
DISL,ioos:station:DISL:KATA:1,2013-12-01T12:00:00Z,30.2583,-88.2131,9.59,1111122 
DISL,ioos:station:DISL:KATA:1,2013-12-01T12:30:00Z,30.2583,-88.2131,9.93,1111122 
DISL,ioos:station:DISL:KATA:1,2013-12-01T13:00:00Z,30.2583,-88.2131,9.86,1111122 
DISL,ioos:station:DISL:KATA:1,2013-12-01T13:30:00Z,30.2583,-88.2131,9.58,1111122 
DISL,ioos:station:DISL:KATA:1,2013-12-01T14:00:00Z,30.2583,-88.2131,9.44,1111122 
DISL,ioos:station:DISL:KATA:1,2013-12-01T14:30:00Z,30.2583,-88.2131,9.98,1111122 
DISL,ioos:station:DISL:KATA:1,2013-12-01T15:00:00Z,30.2583,-88.2131,10.8,1111122 
DISL,ioos:station:DISL:KATA:1,2013-12-01T15:30:00Z,30.2583,-88.2131,12.89,1111122 
DISL,ioos:station:DISL:KATA:1,2013-12-01T16:00:00Z,30.2583,-88.2131,12.89,1111122 
DISL,ioos:station:DISL:KATA:1,2013-12-01T16:30:00Z,30.2583,-88.2131,12.35,1111122 
DISL,ioos:station:DISL:KATA:1,2013-12-01T17:00:00Z,30.2583,-88.2131,12.48,1111122 
DISL,ioos:station:DISL:KATA:1,2013-12-01T17:30:00Z,30.2583,-88.2131,13.13,1111122 
DISL,ioos:station:DISL:KATA:1,2013-12-01T18:00:00Z,30.2583,-88.2131,11.56,1111122 
DISL,ioos:station:DISL:KATA:1,2013-12-01T18:30:00Z,30.2583,-88.2131,13.03,1111122 
DISL,ioos:station:DISL:KATA:1,2013-12-01T19:00:00Z,30.2583,-88.2131,12.18,1111122 
DISL,ioos:station:DISL:KATA:1,2013-12-01T19:30:00Z,30.2583,-88.2131,13.64,1111122 
DISL,ioos:station:DISL:KATA:1,2013-12-01T20:00:00Z,30.2583,-88.2131,13.9,1111122 
DISL,ioos:station:DISL:KATA:1,2013-12-01T20:30:00Z,30.2583,-88.2131,14.31,1111122 
DISL,ioos:station:DISL:KATA:1,2013-12-01T21:00:00Z,30.2583,-88.2131,14.3,1111122 
DISL,ioos:station:DISL:KATA:1,2013-12-01T21:30:00Z,30.2583,-88.2131,14.68,1111122 
DISL,ioos:station:DISL:KATA:1,2013-12-01T22:00:00Z,30.2583,-88.2131,14.92,1111122 
DISL,ioos:station:DISL:KATA:1,2013-12-01T22:30:00Z,30.2583,-88.2131,14.52,1111122 
DISL,ioos:station:DISL:KATA:1,2013-12-01T23:00:00Z,30.2583,-88.2131,14.42,1111122 
DISL,ioos:station:DISL:KATA:1,2013-12-01T23:30:00Z,30.2583,-88.2131,14.35,1111122 
DISL,ioos:station:DISL:KATA:1,2013-12-02T00:00:00Z,30.2583,-88.2131,14.42,1111122 
DISL,ioos:station:DISL:KATA:1,2013-12-02T00:30:00Z,30.2583,-88.2131,14.42,1111122 
DISL,ioos:station:DISL:KATA:1,2013-12-02T01:00:00Z,30.2583,-88.2131,14.35,1111122 
DISL,ioos:station:DISL:KATA:1,2013-12-02T01:30:00Z,30.2583,-88.2131,14.22,1111122 
DISL,ioos:station:DISL:KATA:1,2013-12-02T02:00:00Z,30.2583,-88.2131,14.69,1111122 
DISL,ioos:station:DISL:KATA:1,2013-12-02T02:30:00Z,30.2583,-88.2131,14.12,1111122 
DISL,ioos:station:DISL:KATA:1,2013-12-02T03:00:00Z,30.2583,-88.2131,14.56,1111122 
DISL,ioos:station:DISL:KATA:1,2013-12-02T03:30:00Z,30.2583,-88.2131,14.56,1111122 
DISL,ioos:station:DISL:KATA:1,2013-12-02T04:00:00Z,30.2583,-88.2131,14.12,1111122 
DISL,ioos:station:DISL:KATA:1,2013-12-02T04:30:00Z,30.2583,-88.2131,14.02,1111122 
DISL,ioos:station:DISL:KATA:1,2013-12-02T05:00:00Z,30.2583,-88.2131,14.01,1111122 
DISL,ioos:station:DISL:KATA:1,2013-12-02T05:30:00Z,30.2583,-88.2131,12.89,1111122 
DISL,ioos:station:DISL:KATA:1,2013-12-02T06:00:00Z,30.2583,-88.2131,12.66,1111122 
DISL,ioos:station:DISL:KATA:1,2013-12-02T06:30:00Z,30.2583,-88.2131,12.97,1111122 
DISL,ioos:station:DISL:KATA:1,2013-12-02T07:00:00Z,30.2583,-88.2131,13.0,1111122 
DISL,ioos:station:DISL:KATA:1,2013-12-02T07:30:00Z,30.2583,-88.2131,13.11,1111122 
DISL,ioos:station:DISL:KATA:1,2013-12-02T08:00:00Z,30.2583,-88.2131,12.8,1111122 
DISL,ioos:station:DISL:KATA:1,2013-12-02T08:30:00Z,30.2583,-88.2131,12.7,1111122 
DISL,ioos:station:DISL:KATA:1,2013-12-02T09:00:00Z,30.2583,-88.2131,12.84,1111122 
DISL,ioos:station:DISL:KATA:1,2013-12-02T09:30:00Z,30.2583,-88.2131,12.56,1111122 
DISL,ioos:station:DISL:KATA:1,2013-12-02T10:00:00Z,30.2583,-88.2131,12.33,1111122 
DISL,ioos:station:DISL:KATA:1,2013-12-02T10:30:00Z,30.2583,-88.2131,12.6,1111122 
DISL,ioos:station:DISL:KATA:1,2013-12-02T11:00:00Z,30.2583,-88.2131,12.36,1111122 
DISL,ioos:station:DISL:KATA:1,2013-12-02T11:30:00Z,30.2583,-88.2131,12.16,1111122 
DISL,ioos:station:DISL:KATA:1,2013-12-02T12:00:00Z,30.2583,-88.2131,12.16,1111122 
DISL,ioos:station:DISL:KATA:1,2013-12-02T12:30:00Z,30.2583,-88.2131,12.47,1111122 
DISL,ioos:station:DISL:KATA:1,2013-12-02T13:00:00Z,30.2583,-88.2131,12.6,1111122 
DISL,ioos:station:DISL:KATA:1,2013-12-02T13:30:00Z,30.2583,-88.2131,14.61,1111122 
DISL,ioos:station:DISL:KATA:1,2013-12-02T14:00:00Z,30.2583,-88.2131,15.1,1111122 
DISL,ioos:station:DISL:KATA:1,2013-12-02T14:30:00Z,30.2583,-88.2131,15.3,1111122 
DISL,ioos:station:DISL:KATA:1,2013-12-02T15:00:00Z,30.2583,-88.2131,14.44,1111122 
DISL,ioos:station:DISL:KATA:1,2013-12-02T15:30:00Z,30.2583,-88.2131,15.32,1111122 
DISL,ioos:station:DISL:KATA:1,2013-12-02T16:00:00Z,30.2583,-88.2131,14.61,1111122 
DISL,ioos:station:DISL:KATA:1,2013-12-02T16:30:00Z,30.2583,-88.2131,17.04,1111122 
DISL,ioos:station:DISL:KATA:1,2013-12-02T17:00:00Z,30.2583,-88.2131,15.24,1111122 
DISL,ioos:station:DISL:KATA:1,2013-12-02T17:30:00Z,30.2583,-88.2131,14.79,1111122 
DISL,ioos:station:DISL:KATA:1,2013-12-02T18:00:00Z,30.2583,-88.2131,15.34,1111122 
DISL,ioos:station:DISL:KATA:1,2013-12-02T18:30:00Z,30.2583,-88.2131,15.34,1111122 
DISL,ioos:station:DISL:KATA:1,2013-12-02T19:00:00Z,30.2583,-88.2131,15.13,1111122 
DISL,ioos:station:DISL:KATA:1,2013-12-02T19:30:00Z,30.2583,-88.2131,15.54,1111122 
DISL,ioos:station:DISL:KATA:1,2013-12-02T20:00:00Z,30.2583,-88.2131,15.65,1111122 
DISL,ioos:station:DISL:KATA:1,2013-12-02T20:30:00Z,30.2583,-88.2131,15.75,1111122 
DISL,ioos:station:DISL:KATA:1,2013-12-02T21:00:00Z,30.2583,-88.2131,15.75,1111122 
DISL,ioos:station:DISL:KATA:1,2013-12-02T21:30:00Z,30.2583,-88.2131,15.79,1111122 
DISL,ioos:station:DISL:KATA:1,2013-12-02T22:00:00Z,30.2583,-88.2131,15.7,1111122 
DISL,ioos:station:DISL:KATA:1,2013-12-02T22:30:00Z,30.2583,-88.2131,16.01,1111122 
DISL,ioos:station:DISL:KATA:1,2013-12-02T23:00:00Z,30.2583,-88.2131,16.11,1111122 
DISL,ioos:station:DISL:KATA:1,2013-12-02T23:30:00Z,30.2583,-88.2131,16.32,1111122 
DISL,ioos:station:DISL:KATA:1,2013-12-03T00:00:00Z,30.2583,-88.2131,16.42,1111122 
DISL,ioos:station:DISL:KATA:1,2013-12-03T00:30:00Z,30.2583,-88.2131,16.21,1111122 
DISL,ioos:station:DISL:KATA:1,2013-12-03T01:00:00Z,30.2583,-88.2131,16.45,1111122 
DISL,ioos:station:DISL:KATA:1,2013-12-03T01:30:00Z,30.2583,-88.2131,16.62,1111122 
DISL,ioos:station:DISL:KATA:1,2013-12-03T02:00:00Z,30.2583,-88.2131,16.93,1111122 
DISL,ioos:station:DISL:KATA:1,2013-12-03T02:30:00Z,30.2583,-88.2131,16.96,1111122 
DISL,ioos:station:DISL:KATA:1,2013-12-03T03:00:00Z,30.2583,-88.2131,17.03,1111122 
DISL,ioos:station:DISL:KATA:1,2013-12-03T03:30:00Z,30.2583,-88.2131,17.24,1111122 
DISL,ioos:station:DISL:KATA:1,2013-12-03T04:00:00Z,30.2583,-88.2131,17.1,1111122 
DISL,ioos:station:DISL:KATA:1,2013-12-03T04:30:00Z,30.2583,-88.2131,17.37,1111122 
DISL,ioos:station:DISL:KATA:1,2013-12-03T05:00:00Z,30.2583,-88.2131,17.13,1111122 
DISL,ioos:station:DISL:KATA:1,2013-12-03T05:30:00Z,30.2583,-88.2131,17.34,1111122 
DISL,ioos:station:DISL:KATA:1,2013-12-03T06:00:00Z,30.2583,-88.2131,17.37,1111122 
DISL,ioos:station:DISL:KATA:1,2013-12-03T06:30:00Z,30.2583,-88.2131,17.27,1111122 
DISL,ioos:station:DISL:KATA:1,2013-12-03T07:00:00Z,30.2583,-88.2131,17.34,1111122 
DISL,ioos:station:DISL:KATA:1,2013-12-03T07:30:00Z,30.2583,-88.2131,17.33,1111122 
DISL,ioos:station:DISL:KATA:1,2013-12-03T08:00:00Z,30.2583,-88.2131,17.37,1111122 
DISL,ioos:station:DISL:KATA:1,2013-12-03T08:30:00Z,30.2583,-88.2131,17.33,1111122 
DISL,ioos:station:DISL:KATA:1,2013-12-03T09:00:00Z,30.2583,-88.2131,17.53,1111122 
DISL,ioos:station:DISL:KATA:1,2013-12-03T09:30:00Z,30.2583,-88.2131,17.57,1111122 
DISL,ioos:station:DISL:KATA:1,2013-12-03T10:00:00Z,30.2583,-88.2131,17.43,1111122 
DISL,ioos:station:DISL:KATA:1,2013-12-03T10:30:00Z,30.2583,-88.2131,17.3,1111122 
DISL,ioos:station:DISL:KATA:1,2013-12-03T11:00:00Z,30.2583,-88.2131,17.34,1111122 
DISL,ioos:station:DISL:KATA:1,2013-12-03T11:30:00Z,30.2583,-88.2131,17.34,1111122 
DISL,ioos:station:DISL:KATA:1,2013-12-03T12:00:00Z,30.2583,-88.2131,17.54,1111122 
DISL,ioos:station:DISL:KATA:1,2013-12-03T12:30:00Z,30.2583,-88.2131,17.51,1111122 
DISL,ioos:station:DISL:KATA:1,2013-12-03T13:00:00Z,30.2583,-88.2131,17.64,1111122 
DISL,ioos:station:DISL:KATA:1,2013-12-03T13:30:00Z,30.2583,-88.2131,18.11,1111122 
DISL,ioos:station:DISL:KATA:1,2013-12-03T14:00:00Z,30.2583,-88.2131,18.27,1111122 
DISL,ioos:station:DISL:KATA:1,2013-12-03T14:30:00Z,30.2583,-88.2131,18.43,1111122 
DISL,ioos:station:DISL:KATA:1,2013-12-03T15:00:00Z,30.2583,-88.2131,18.36,1111122 
DISL,ioos:station:DISL:KATA:1,2013-12-03T15:30:00Z,30.2583,-88.2131,18.06,1111122 
DISL,ioos:station:DISL:KATA:1,2013-12-03T16:00:00Z,30.2583,-88.2131,18.33,1111122 
DISL,ioos:station:DISL:KATA:1,2013-12-03T16:30:00Z,30.2583,-88.2131,18.5,1111122 
DISL,ioos:station:DISL:KATA:1,2013-12-03T17:00:00Z,30.2583,-88.2131,18.56,1111122 
DISL,ioos:station:DISL:KATA:1,2013-12-03T17:30:00Z,30.2583,-88.2131,18.42,1111122 
DISL,ioos:station:DISL:KATA:1,2013-12-03T18:00:00Z,30.2583,-88.2131,18.32,1111122 
DISL,ioos:station:DISL:KATA:1,2013-12-03T18:30:00Z,30.2583,-88.2131,18.16,1111122 
DISL,ioos:station:DISL:KATA:1,2013-12-03T19:00:00Z,30.2583,-88.2131,18.16,1111122 
DISL,ioos:station:DISL:KATA:1,2013-12-03T19:30:00Z,30.2583,-88.2131,18.43,1111122 
DISL,ioos:station:DISL:KATA:1,2013-12-03T20:00:00Z,30.2583,-88.2131,18.46,1111122 
DISL,ioos:station:DISL:KATA:1,2013-12-03T20:30:00Z,30.2583,-88.2131,18.6,1111122 
DISL,ioos:station:DISL:KATA:1,2013-12-03T21:00:00Z,30.2583,-88.2131,18.47,1111122 
DISL,ioos:station:DISL:KATA:1,2013-12-03T21:30:00Z,30.2583,-88.2131,18.4,1111122 
DISL,ioos:station:DISL:KATA:1,2013-12-03T22:00:00Z,30.2583,-88.2131,18.4,1111122 
DISL,ioos:station:DISL:KATA:1,2013-12-03T22:30:00Z,30.2583,-88.2131,18.3,1111122 
DISL,ioos:station:DISL:KATA:1,2013-12-03T23:00:00Z,30.2583,-88.2131,18.72,1111122 
DISL,ioos:station:DISL:KATA:1,2013-12-03T23:30:00Z,30.2583,-88.2131,18.55,1111122 
DISL,ioos:station:DISL:KATA:1,2013-12-04T00:00:00Z,30.2583,-88.2131,18.38,1111122 
DISL,ioos:station:DISL:KATA:1,2013-12-04T00:30:00Z,30.2583,-88.2131,18.45,1111122 
DISL,ioos:station:DISL:KATA:1,2013-12-04T01:00:00Z,30.2583,-88.2131,18.48,1111122 
DISL,ioos:station:DISL:KATA:1,2013-12-04T01:30:00Z,30.2583,-88.2131,18.42,1111122 
DISL,ioos:station:DISL:KATA:1,2013-12-04T02:00:00Z,30.2583,-88.2131,18.25,1111122 
DISL,ioos:station:DISL:KATA:1,2013-12-04T02:30:00Z,30.2583,-88.2131,18.18,1111122 
DISL,ioos:station:DISL:KATA:1,2013-12-04T03:00:00Z,30.2583,-88.2131,18.31,1111122 
DISL,ioos:station:DISL:KATA:1,2013-12-04T03:30:00Z,30.2583,-88.2131,18.21,1111122 
DISL,ioos:station:DISL:KATA:1,2013-12-04T04:00:00Z,30.2583,-88.2131,18.25,1111122 
DISL,ioos:station:DISL:KATA:1,2013-12-04T04:30:00Z,30.2583,-88.2131,18.31,1111122 
DISL,ioos:station:DISL:KATA:1,2013-12-04T05:00:00Z,30.2583,-88.2131,18.25,1111122 
DISL,ioos:station:DISL:KATA:1,2013-12-04T05:30:00Z,30.2583,-88.2131,18.25,1111122 
DISL,ioos:station:DISL:KATA:1,2013-12-04T06:00:00Z,30.2583,-88.2131,18.14,1111122 
DISL,ioos:station:DISL:KATA:1,2013-12-04T06:30:00Z,30.2583,-88.2131,18.38,1111122 
DISL,ioos:station:DISL:KATA:1,2013-12-04T07:00:00Z,30.2583,-88.2131,18.59,1111122 
DISL,ioos:station:DISL:KATA:1,2013-12-04T07:30:00Z,30.2583,-88.2131,18.45,1111122 
DISL,ioos:station:DISL:KATA:1,2013-12-04T08:00:00Z,30.2583,-88.2131,18.76,1111122 
DISL,ioos:station:DISL:KATA:1,2013-12-04T08:30:00Z,30.2583,-88.2131,18.79,1111122 
DISL,ioos:station:DISL:KATA:1,2013-12-04T09:00:00Z,30.2583,-88.2131,18.48,1111122 
DISL,ioos:station:DISL:KATA:1,2013-12-04T09:30:00Z,30.2583,-88.2131,18.42,1111122 
DISL,ioos:station:DISL:KATA:1,2013-12-04T10:00:00Z,30.2583,-88.2131,18.45,1111122 
DISL,ioos:station:DISL:KATA:1,2013-12-04T10:30:00Z,30.2583,-88.2131,17.74,1111122 
DISL,ioos:station:DISL:KATA:1,2013-12-04T11:00:00Z,30.2583,-88.2131,17.33,1111122 
DISL,ioos:station:DISL:KATA:1,2013-12-04T11:30:00Z,30.2583,-88.2131,17.57,1111122 
DISL,ioos:station:DISL:KATA:1,2013-12-04T12:00:00Z,30.2583,-88.2131,17.94,1111122 
DISL,ioos:station:DISL:KATA:1,2013-12-04T12:30:00Z,30.2583,-88.2131,18.21,1111122 
DISL,ioos:station:DISL:KATA:1,2013-12-04T13:00:00Z,30.2583,-88.2131,18.14,1111122 
DISL,ioos:station:DISL:KATA:1,2013-12-04T13:30:00Z,30.2583,-88.2131,17.6,1111122 
DISL,ioos:station:DISL:KATA:1,2013-12-04T14:00:00Z,30.2583,-88.2131,17.67,1111122 
DISL,ioos:station:DISL:KATA:1,2013-12-04T14:30:00Z,30.2583,-88.2131,18.14,1111122 
DISL,ioos:station:DISL:KATA:1,2013-12-04T15:00:00Z,30.2583,-88.2131,18.13,1111122 
DISL,ioos:station:DISL:KATA:1,2013-12-04T15:30:00Z,30.2583,-88.2131,18.5,1111122 
DISL,ioos:station:DISL:KATA:1,2013-12-04T16:00:00Z,30.2583,-88.2131,19.18,1111122 
DISL,ioos:station:DISL:KATA:1,2013-12-04T16:30:00Z,30.2583,-88.2131,19.08,1111122 
DISL,ioos:station:DISL:KATA:1,2013-12-04T17:00:00Z,30.2583,-88.2131,19.51,1111122 
DISL,ioos:station:DISL:KATA:1,2013-12-04T17:30:00Z,30.2583,-88.2131,19.5,1111122 
DISL,ioos:station:DISL:KATA:1,2013-12-04T18:00:00Z,30.2583,-88.2131,19.36,1111122 
DISL,ioos:station:DISL:KATA:1,2013-12-04T18:30:00Z,30.2583,-88.2131,19.63,1111122 
DISL,ioos:station:DISL:KATA:1,2013-12-04T19:00:00Z,30.2583,-88.2131,19.63,1111122 
DISL,ioos:station:DISL:KATA:1,2013-12-04T19:30:00Z,30.2583,-88.2131,19.47,1111122 
DISL,ioos:station:DISL:KATA:1,2013-12-04T20:00:00Z,30.2583,-88.2131,19.13,1111122 
DISL,ioos:station:DISL:KATA:1,2013-12-04T20:30:00Z,30.2583,-88.2131,19.44,1111122 
DISL,ioos:station:DISL:KATA:1,2013-12-04T21:00:00Z,30.2583,-88.2131,18.9,1111122 
DISL,ioos:station:DISL:KATA:1,2013-12-04T21:30:00Z,30.2583,-88.2131,19.3,1111122 
DISL,ioos:station:DISL:KATA:1,2013-12-04T22:00:00Z,30.2583,-88.2131,18.84,1111122 
DISL,ioos:station:DISL:KATA:1,2013-12-04T22:30:00Z,30.2583,-88.2131,18.74,1111122 
DISL,ioos:station:DISL:KATA:1,2013-12-04T23:00:00Z,30.2583,-88.2131,18.84,1111122 
DISL,ioos:station:DISL:KATA:1,2013-12-04T23:30:00Z,30.2583,-88.2131,18.3,1111122 
DISL,ioos:station:DISL:KATA:1,2013-12-05T00:00:00Z,30.2583,-88.2131,18.61,1111122 
DISL,ioos:station:DISL:KATA:1,2013-12-05T00:30:00Z,30.2583,-88.2131,18.54,1111122 
DISL,ioos:station:DISL:KATA:1,2013-12-05T01:00:00Z,30.2583,-88.2131,18.03,1111122 
DISL,ioos:station:DISL:KATA:1,2013-12-05T01:30:00Z,30.2583,-88.2131,18.48,1111122 
DISL,ioos:station:DISL:KATA:1,2013-12-05T02:00:00Z,30.2583,-88.2131,18.69,1111122 
DISL,ioos:station:DISL:KATA:1,2013-12-05T02:30:00Z,30.2583,-88.2131,18.89,1111122 
DISL,ioos:station:DISL:KATA:1,2013-12-05T03:00:00Z,30.2583,-88.2131,18.75,1111122 
DISL,ioos:station:DISL:KATA:1,2013-12-05T03:30:00Z,30.2583,-88.2131,19.39,1111122 
DISL,ioos:station:DISL:KATA:1,2013-12-05T04:00:00Z,30.2583,-88.2131,19.49,1111122 
DISL,ioos:station:DISL:KATA:1,2013-12-05T04:30:00Z,30.2583,-88.2131,19.15,1111122 
DISL,ioos:station:DISL:KATA:1,2013-12-05T05:00:00Z,30.2583,-88.2131,18.71,1111122 
DISL,ioos:station:DISL:KATA:1,2013-12-05T05:30:00Z,30.2583,-88.2131,18.75,1111122 
DISL,ioos:station:DISL:KATA:1,2013-12-05T06:00:00Z,30.2583,-88.2131,18.68,1111122 
DISL,ioos:station:DISL:KATA:1,2013-12-05T06:30:00Z,30.2583,-88.2131,18.61,1111122 
DISL,ioos:station:DISL:KATA:1,2013-12-05T07:00:00Z,30.2583,-88.2131,18.55,1111122 
DISL,ioos:station:DISL:KATA:1,2013-12-05T07:30:00Z,30.2583,-88.2131,18.75,1111122 
DISL,ioos:station:DISL:KATA:1,2013-12-05T08:00:00Z,30.2583,-88.2131,18.61,1111122 
DISL,ioos:station:DISL:KATA:1,2013-12-05T08:30:00Z,30.2583,-88.2131,18.62,1111122 
DISL,ioos:station:DISL:KATA:1,2013-12-05T09:00:00Z,30.2583,-88.2131,18.78,1111122 
DISL,ioos:station:DISL:KATA:1,2013-12-05T09:30:00Z,30.2583,-88.2131,18.54,1111122 
DISL,ioos:station:DISL:KATA:1,2013-12-05T10:00:00Z,30.2583,-88.2131,18.37,1111122 
DISL,ioos:station:DISL:KATA:1,2013-12-05T10:30:00Z,30.2583,-88.2131,18.48,1111122 
DISL,ioos:station:DISL:KATA:1,2013-12-05T11:00:00Z,30.2583,-88.2131,18.65,1111122 
DISL,ioos:station:DISL:KATA:1,2013-12-05T11:30:00Z,30.2583,-88.2131,18.58,1111122 
DISL,ioos:station:DISL:KATA:1,2013-12-05T12:00:00Z,30.2583,-88.2131,18.62,1111122 
DISL,ioos:station:DISL:KATA:1,2013-12-05T12:30:00Z,30.2583,-88.2131,18.82,1111122 
DISL,ioos:station:DISL:KATA:1,2013-12-05T13:00:00Z,30.2583,-88.2131,18.85,1111122 
DISL,ioos:station:DISL:KATA:1,2013-12-05T13:30:00Z,30.2583,-88.2131,18.75,1111122 
DISL,ioos:station:DISL:KATA:1,2013-12-05T14:00:00Z,30.2583,-88.2131,19.12,1111122 
DISL,ioos:station:DISL:KATA:1,2013-12-05T14:30:00Z,30.2583,-88.2131,19.76,1111122 
DISL,ioos:station:DISL:KATA:1,2013-12-05T15:00:00Z,30.2583,-88.2131,18.77,1111122 
DISL,ioos:station:DISL:KATA:1,2013-12-05T15:30:00Z,30.2583,-88.2131,19.01,1111122 
DISL,ioos:station:DISL:KATA:1,2013-12-05T16:00:00Z,30.2583,-88.2131,19.28,1111122 
DISL,ioos:station:DISL:KATA:1,2013-12-05T16:30:00Z,30.2583,-88.2131,19.34,1111122 
DISL,ioos:station:DISL:KATA:1,2013-12-05T17:00:00Z,30.2583,-88.2131,19.1,1111122 
DISL,ioos:station:DISL:KATA:1,2013-12-05T17:30:00Z,30.2583,-88.2131,19.17,1111122 
DISL,ioos:station:DISL:KATA:1,2013-12-05T18:00:00Z,30.2583,-88.2131,19.24,1111122 
DISL,ioos:station:DISL:KATA:1,2013-12-05T18:30:00Z,30.2583,-88.2131,19.41,1111122 
DISL,ioos:station:DISL:KATA:1,2013-12-05T19:00:00Z,30.2583,-88.2131,19.37,1111122 
DISL,ioos:station:DISL:KATA:1,2013-12-05T19:30:00Z,30.2583,-88.2131,19.24,1111122 
DISL,ioos:station:DISL:KATA:1,2013-12-05T20:00:00Z,30.2583,-88.2131,19.47,1111122 
DISL,ioos:station:DISL:KATA:1,2013-12-05T20:30:00Z,30.2583,-88.2131,19.21,1111122 
DISL,ioos:station:DISL:KATA:1,2013-12-05T21:00:00Z,30.2583,-88.2131,19.35,1111122 
DISL,ioos:station:DISL:KATA:1,2013-12-05T21:30:00Z,30.2583,-88.2131,19.42,1111122 
DISL,ioos:station:DISL:KATA:1,2013-12-05T22:00:00Z,30.2583,-88.2131,19.31,1111122 
DISL,ioos:station:DISL:KATA:1,2013-12-05T22:30:00Z,30.2583,-88.2131,19.25,1111122 
DISL,ioos:station:DISL:KATA:1,2013-12-05T23:00:00Z,30.2583,-88.2131,19.38,1111122 
DISL,ioos:station:DISL:KATA:1,2013-12-05T23:30:00Z,30.2583,-88.2131,19.25,1111122 
DISL,ioos:station:DISL:KATA:1,2013-12-06T00:00:00Z,30.2583,-88.2131,19.11,1111122 
DISL,ioos:station:DISL:KATA:1,2013-12-06T00:30:00Z,30.2583,-88.2131,19.08,1111122 
DISL,ioos:station:DISL:KATA:1,2013-12-06T01:00:00Z,30.2583,-88.2131,19.05,1111122 
DISL,ioos:station:DISL:KATA:1,2013-12-06T01:30:00Z,30.2583,-88.2131,19.19,1111122 
DISL,ioos:station:DISL:KATA:1,2013-12-06T02:00:00Z,30.2583,-88.2131,19.39,1111122 
DISL,ioos:station:DISL:KATA:1,2013-12-06T02:30:00Z,30.2583,-88.2131,19.39,1111122 
DISL,ioos:station:DISL:KATA:1,2013-12-06T03:00:00Z,30.2583,-88.2131,19.29,1111122 
DISL,ioos:station:DISL:KATA:1,2013-12-06T03:30:00Z,30.2583,-88.2131,19.59,1111122 
DISL,ioos:station:DISL:KATA:1,2013-12-06T04:00:00Z,30.2583,-88.2131,19.28,1111122 
DISL,ioos:station:DISL:KATA:1,2013-12-06T04:30:00Z,30.2583,-88.2131,19.11,1111122 
DISL,ioos:station:DISL:KATA:1,2013-12-06T05:00:00Z,30.2583,-88.2131,19.7,1111122 
DISL,ioos:station:DISL:KATA:1,2013-12-06T05:30:00Z,30.2583,-88.2131,19.08,1111122 
DISL,ioos:station:DISL:KATA:1,2013-12-06T06:00:00Z,30.2583,-88.2131,19.29,1111122 
DISL,ioos:station:DISL:KATA:1,2013-12-06T06:30:00Z,30.2583,-88.2131,19.32,1111122 
DISL,ioos:station:DISL:KATA:1,2013-12-06T07:00:00Z,30.2583,-88.2131,19.12,1111122 
DISL,ioos:station:DISL:KATA:1,2013-12-06T07:30:00Z,30.2583,-88.2131,19.08,1111122 
DISL,ioos:station:DISL:KATA:1,2013-12-06T08:00:00Z,30.2583,-88.2131,19.15,1111122 
DISL,ioos:station:DISL:KATA:1,2013-12-06T08:30:00Z,30.2583,-88.2131,19.12,1111122 
DISL,ioos:station:DISL:KATA:1,2013-12-06T09:00:00Z,30.2583,-88.2131,19.36,1111122 
DISL,ioos:station:DISL:KATA:1,2013-12-06T09:30:00Z,30.2583,-88.2131,19.18,1111122 
DISL,ioos:station:DISL:KATA:1,2013-12-06T10:00:00Z,30.2583,-88.2131,19.02,1111122 
DISL,ioos:station:DISL:KATA:1,2013-12-06T10:30:00Z,30.2583,-88.2131,19.09,1111122 
DISL,ioos:station:DISL:KATA:1,2013-12-06T11:00:00Z,30.2583,-88.2131,18.58,1111122 
DISL,ioos:station:DISL:KATA:1,2013-12-06T11:30:00Z,30.2583,-88.2131,18.75,1111122 
DISL,ioos:station:DISL:KATA:1,2013-12-06T12:00:00Z,30.2583,-88.2131,18.71,1111122 
DISL,ioos:station:DISL:KATA:1,2013-12-06T12:30:00Z,30.2583,-88.2131,19.09,1111122 
DISL,ioos:station:DISL:KATA:1,2013-12-06T13:00:00Z,30.2583,-88.2131,19.6,1111122 
DISL,ioos:station:DISL:KATA:1,2013-12-06T13:30:00Z,30.2583,-88.2131,19.46,1111122 
DISL,ioos:station:DISL:KATA:1,2013-12-06T14:00:00Z,30.2583,-88.2131,18.94,1111122 
DISL,ioos:station:DISL:KATA:1,2013-12-06T14:30:00Z,30.2583,-88.2131,19.21,1111122 
DISL,ioos:station:DISL:KATA:1,2013-12-06T15:00:00Z,30.2583,-88.2131,19.69,1111122 
DISL,ioos:station:DISL:KATA:1,2013-12-06T15:30:00Z,30.2583,-88.2131,19.51,1111122 
DISL,ioos:station:DISL:KATA:1,2013-12-06T16:00:00Z,30.2583,-88.2131,19.71,1111122 
DISL,ioos:station:DISL:KATA:1,2013-12-06T16:30:00Z,30.2583,-88.2131,19.36,1111122 
DISL,ioos:station:DISL:KATA:1,2013-12-06T17:00:00Z,30.2583,-88.2131,19.74,1111122 
DISL,ioos:station:DISL:KATA:1,2013-12-06T17:30:00Z,30.2583,-88.2131,19.53,1111122 
DISL,ioos:station:DISL:KATA:1,2013-12-06T18:00:00Z,30.2583,-88.2131,20.01,1111122 
DISL,ioos:station:DISL:KATA:1,2013-12-06T18:30:00Z,30.2583,-88.2131,20.04,1111122 
DISL,ioos:station:DISL:KATA:1,2013-12-06T19:00:00Z,30.2583,-88.2131,20.17,1111122 
DISL,ioos:station:DISL:KATA:1,2013-12-06T19:30:00Z,30.2583,-88.2131,20.25,1111122 
DISL,ioos:station:DISL:KATA:1,2013-12-06T20:00:00Z,30.2583,-88.2131,20.15,1111122 
DISL,ioos:station:DISL:KATA:1,2013-12-06T20:30:00Z,30.2583,-88.2131,20.19,1111122 
DISL,ioos:station:DISL:KATA:1,2013-12-06T21:00:00Z,30.2583,-88.2131,20.15,1111122 
DISL,ioos:station:DISL:KATA:1,2013-12-06T21:30:00Z,30.2583,-88.2131,20.15,1111122 
DISL,ioos:station:DISL:KATA:1,2013-12-06T22:00:00Z,30.2583,-88.2131,19.86,1111122 
DISL,ioos:station:DISL:KATA:1,2013-12-06T22:30:00Z,30.2583,-88.2131,20.16,1111122 
DISL,ioos:station:DISL:KATA:1,2013-12-06T23:00:00Z,30.2583,-88.2131,20.27,1111122 
DISL,ioos:station:DISL:KATA:1,2013-12-06T23:30:00Z,30.2583,-88.2131,20.13,1111122 